Погода в Благовещенском

Россия / Владимирская область     55°43′29″N   42°12′08″E
темп.,
°C
ветер,
м/с
пор.,
м/с
влажн.,
%
обл.,
%
осадки,
мм/ч
давл.,
гПа
погр.,
м
31 июля, сб
сб3100:00+16ююз259711 0.0 1004100
03:00+16юз369824 0.0 1003147
06:00+18зюз38954 0.0 1003260
09:00+24з576182 0.0 1004842
12:00+27з79371 0.0 10042419
15:00+28зюз710305 0.0 10043008
18:00+26зюз610420 0.0 10051532
21:00+21з38522 0.0 1007178
1 августа, вс
вс100:00+17зюз346652 0.0 100857
03:00+15зюз357172 0.0 101085
06:00+17юз24707 0.0 1011130
09:00+24зюз35475 0.0 1012739
12:00+28зюз56349 0.0 10111869
15:00+30зюз463210 0.0 10112288
18:00+28ююз473833 0.0 1010936
21:00+20ююв1176100 0.1 101011
2 августа, пн
пн200:00+20ююв3576100 0.1 101075
03:00+17ю22799 0.4 101022
06:00+18ююз23745 0.0 101175
09:00+25ююз355524 0.3 1010429
12:00+32ююз6103350 0.0 10091981
15:00+30юз593695 0.1 1007900
18:00+29ю494422 0.0 1007549
21:00+22ююв41168100 0.0 1006326
3 августа, вт
вт300:00+19ю4168495 0.8 1005411
03:00+18ю5139188 1.4 1005303
06:00+19ю4109245 0.1 1005411
09:00+22юз5976100 0.1 1005602
12:00+27юз575374 0.0 10061688
15:00+22з4773100 0.6 1007617
18:00+23з4562100 0.1 10071195
21:00+18зсз3677100 0.1 1008114
4 августа, ср
ср400:00+16з23895 0.0 101049
03:00+14зсз22945 0.0 101037
06:00+16з25865 0.0 1011159
09:00+22зсз34555 0.0 1012868
12:00+25зсз453529 0.0 10132404
15:00+27зсз653180 0.0 10132737
18:00+22зсз4749100 0.0 1014591
21:00+18сз226768 0.0 101530